RH
16 19 25 32 37 37 38 43 46 44 43 48 58 66 72 76 83 87 85 87 87 85 79 73 72 66 58 52 49 49 50 52 52 51 51 52 53 54 56 57 59 60 62 61 60 59 57 57 57 59 61 61
12 16 18 20 24 27 28 31 38 44 42 40 47 64 75 77 81 78 79 85 84 87 85 77 76 70 62 57 55 54 54 55 55 54 53 52 53 54 55 57 59 62 63 63 62 61 59 58 58 59 60 61
9 14 23 29 29 29 29 27 28 37 45 42 42 58 71 71 75 76 75 77 77 83 87 84 80 72 66 62 61 61 59 58 58 58 58 55 54 54 55 56 60 64 65 64 63 63 62 61 60 60 60 61
12 13 20 33 42 43 40 35 28 28 38 44 44 48 54 58 65 66 68 76 78 79 84 87 84 77 71 65 63 63 61 60 60 62 61 60 58 56 56 59 64 66 65 64 64 65 66 66 64 62 61 62
25 28 28 33 44 53 54 50 39 29 29 36 43 45 45 52 61 59 62 75 79 79 84 86 86 85 78 69 65 64 64 63 63 66 66 64 62 59 60 64 65 65 64 64 66 68 69 70 69 67 64 63
48 53 53 49 47 53 59 59 52 40 31 31 37 41 42 46 51 50 54 66 72 75 80 83 85 85 81 75 71 69 70 70 71 78 81 75 70 66 68 71 69 68 67 66 68 71 73 73 72 72 70 68
51 57 61 61 57 55 57 59 57 52 43 37 35 37 40 42 45 47 48 53 58 64 74 86 88 86 83 79 76 73 73 74 75 83 91 89 84 77 73 74 74 75 75 73 72 74 77 77 75 74 73 72
40 43 47 53 54 53 54 55 56 56 52 46 41 38 39 41 45 48 48 47 47 48 61 84 88 83 83 81 80 78 75 76 75 82 90 93 93 86 81 79 77 77 79 79 76 75 77 77 78 77 75 74
38 35 33 36 41 43 45 49 51 52 53 52 49 45 42 41 42 46 49 48 47 41 49 76 85 77 76 78 83 83 81 80 80 85 90 93 94 90 88 88 84 83 85 86 84 81 79 77 78 80 81 79
32 31 30 28 28 31 34 38 42 44 46 49 50 49 46 44 42 44 45 46 48 45 48 64 78 82 79 79 84 87 86 85 86 88 90 93 94 93 93 94 93 92 91 90 90 88 85 83 81 82 86 87
21 22 25 26 25 24 25 27 30 33 36 40 45 47 47 46 43 43 43 45 47 48 48 50 63 75 78 81 84 85 85 85 90 91 92 94 95 98 99 97 94 94 94 92 93 94 91 90 89 90 93 93
15 16 18 21 23 23 23 23 23 26 29 33 38 42 45 46 45 43 42 45 48 50 51 50 56 60 68 83 84 84 89 92 95 95 95 95 95 98 98 98 96 97 98 95 96 98 97 96 96 98 99 97
12 13 15 16 19 21 22 22 22 24 26 29 33 36 40 42 43 43 41 42 45 48 49 52 57 55 58 70 77 85 93 97 98 97 97 95 94 96 95 96 99 101 101 99 99 99 99 101 100 100 99 100
14 13 13 14 16 18 20 20 21 22 25 27 29 32 36 39 40 41 41 39 40 43 45 48 53 56 56 59 73 89 94 95 95 91 89 89 92 96 90 86 88 93 96 98 99 99 100 100 100 100 99 99
15 14 13 13 14 16 18 19 19 20 22 26 29 31 34 38 40 41 41 40 39 39 40 44 46 51 56 57 74 95 97 92 90 83 82 87 90 85 77 76 80 83 86 90 94 97 100 100 99 99 100 99
15 15 14 13 13 14 16 18 18 18 19 23 29 34 36 40 43 44 43 42 41 40 40 42 42 44 48 48 63 89 95 89 88 88 90 95 89 78 77 82 84 83 83 85 87 91 96 99 100 100 99 98
16 15 14 14 13 13 14 16 17 18 18 19 24 31 37 42 44 45 45 44 43 45 44 44 44 45 47 47 53 72 85 85 83 86 89 88 81 80 88 89 85 81 79 80 80 85 95 100 100 99 98 96
18 17 16 15 15 15 14 14 16 17 18 18 19 23 29 36 41 44 45 45 44 44 44 44 45 47 50 53 56 64 75 76 74 80 87 85 83 90 96 92 87 84 87 90 86 84 91 98 100 99 99 95
24 23 21 20 19 19 18 16 15 16 17 18 18 19 22 26 31 37 40 43 44 44 43 42 41 43 48 53 57 63 69 72 73 81 93 95 94 99 99 97 95 93 95 98 95 88 87 96 100 100 100 94
26 27 27 26 25 25 24 22 19 18 17 17 17 18 19 21 23 27 31 35 39 43 45 46 45 44 47 52 58 64 71 78 81 85 95 99 99 100 100 100 100 100 98 96 97 96 94 99 100 100 99 92
22 24 26 27 28 29 29 29 27 25 23 20 19 18 18 18 20 22 26 29 33 38 44 49 52 52 53 57 61 66 72 78 80 81 87 92 95 98 100 100 100 100 99 97 99 100 99 100 100 100 98 94
20 20 22 23 25 27 28 30 31 31 30 28 26 23 21 20 19 21 24 27 31 36 41 47 53 58 62 65 66 70 74 78 79 79 80 82 85 90 96 100 100 100 100 100 100 100 100 100 100 100 100 99
23 22 22 22 22 23 24 26 28 30 31 32 33 32 30 28 26 26 27 29 33 38 42 45 50 57 65 72 76 79 83 86 87 85 83 82 80 83 91 97 99 100 100 100 100 100 100 100 99 100 100 100
18 20 21 22 22 22 23 24 25 26 28 29 31 33 35 36 35 35 35 36 39 43 46 49 52 57 65 74 83 91 94 94 93 92 89 87 85 83 87 94 97 100 100 100 100 100 100 100 100 100 100 100
11 13 14 16 17 19 21 22 24 26 28 29 30 31 33 35 37 39 41 43 44 47 50 53 55 59 66 76 86 93 97 97 97 96 94 92 90 87 89 95 99 100 100 100 100 100 100 100 99 100 100 100
7 8 9 10 11 12 13 15 17 21 24 27 30 32 33 34 35 37 39 42 44 47 49 53 56 59 65 74 82 86 90 96 98 98 99 98 95 92 91 94 97 97 98 100 100 100 100 100 100 100 100 100
5 5 6 7 7 8 9 9 10 12 15 18 22 26 30 33 35 36 37 38 40 42 45 47 51 55 58 62 70 77 83 88 92 95 96 97 98 97 91 86 90 91 90 96 100 100 99 99 100 100 100 100
4 4 5 5 5 6 6 8 8 8 9 10 13 15 18 22 25 29 32 35 37 39 42 42 45 48 50 52 56 65 78 88 93 94 94 94 93 91 84 80 84 84 81 87 96 99 99 99 100 100 99 100
4 4 4 4 4 5 5 6 6 6 7 7 9 10 12 14 15 18 20 23 27 31 36 39 42 45 49 54 55 62 81 96 98 95 99 98 84 79 87 90 90 88 83 87 96 98 97 97 98 99 99 100
4 4 4 4 4 4 4 5 5 5 6 6 7 8 9 11 12 14 15 16 18 20 24 28 33 37 43 50 55 61 72 79 79 79 85 87 76 79 96 100 98 97 95 96 99 95 90 92 95 93 94 97
4 4 4 4 4 4 4 4 4 4 5 5 5 5 6 6 7 9 11 13 14 16 18 19 22 25 29 34 39 45 51 55 58 60 63 67 70 80 91 95 95 97 99 101 101 95 90 90 95 96 95 97
Wind_Speed
44 43 42 41 40 39 38 36 34 32 33 33 34 33 31 30 33 38 36 35 35 34 36 37 37 38 37 36 36 36 36 36 36 35 35 35 33 33 32 32 30 28 30 31 29 29 29 30 29 28 27 27
44 44 43 43 43 42 40 38 36 34 33 33 34 33 31 32 35 38 39 38 36 34 35 35 36 37 36 37 37 36 36 37 37 37 37 37 36 36 35 33 31 31 33 34 32 31 30 31 31 31 30 29
42 42 42 41 41 41 41 40 38 36 35 34 34 33 31 31 34 36 39 40 37 35 36 35 35 35 35 36 36 36 36 37 37 37 38 38 38 38 37 35 34 36 38 36 35 33 32 32 32 33 32 32
39 40 40 39 39 38 39 39 39 38 37 36 35 33 32 30 30 33 37 38 35 35 37 36 35 35 35 35 35 35 35 37 37 38 38 39 40 40 38 37 39 41 40 38 37 35 34 34 33 33 34 34
36 36 37 37 37 36 35 35 37 38 38 38 36 35 33 30 28 30 34 35 34 34 35 36 36 36 37 37 37 37 36 36 37 38 38 39 40 40 40 41 43 42 41 40 38 37 36 35 35 35 35 35
33 33 33 33 34 34 33 32 33 35 36 37 37 37 35 33 31 30 31 32 34 34 33 36 38 38 38 38 38 39 39 38 37 37 38 39 40 41 41 42 42 41 41 40 40 39 38 37 37 37 37 37
33 33 33 32 32 33 33 32 31 32 34 35 36 36 35 34 34 33 31 30 31 32 34 36 36 36 39 41 41 41 41 42 41 40 39 40 41 42 42 42 42 41 41 41 41 40 39 39 39 39 39 39
31 33 33 33 32 32 32 31 31 31 32 34 35 36 35 34 33 34 33 32 30 30 33 34 34 34 36 39 42 43 43 44 46 45 42 41 42 43 43 44 44 43 42 41 41 41 40 40 41 42 41 41
28 30 31 33 34 34 32 32 31 31 31 32 33 35 35 34 33 33 34 34 33 31 31 32 34 36 36 36 37 41 43 45 46 47 46 43 45 47 45 46 46 44 42 41 40 40 40 40 41 42 40 41
27 27 28 30 33 35 35 33 33 32 32 32 33 34 34 35 34 33 33 34 34 34 32 32 33 36 36 34 35 36 37 40 42 45 46 44 46 48 45 43 44 44 44 44 41 39 39 39 40 40 39 39
28 27 27 27 28 31 34 34 34 34 34 34 34 34 34 34 34 33 33 32 33 34 34 34 31 32 35 35 35 36 36 39 42 44 45 45 46 48 48 45 45 47 49 48 43 40 38 38 38 39 38 38
28 27 27 27 27 28 30 32 33 34 34 34 34 34 34 34 33 33 33 32 31 32 35 36 32 30 33 36 35 36 38 39 38 36 36 35 34 37 40 43 45 47 48 48 46 44 42 40 40 39 39 40
27 27 26 26 27 27 28 30 31 32 33 33 34 34 33 33 33 33 32 32 31 31 32 35 36 33 33 35 33 34 39 39 35 33 32 31 30 29 28 32 38 41 41 44 43 42 41 40 40 41 42 40
27 26 26 26 26 27 28 29 30 30 31 32 32 32 32 32 32 32 31 31 31 31 31 32 34 35 34 33 32 33 35 35 34 35 36 36 35 32 29 31 34 35 35 37 36 36 37 37 38 39 37 32
26 25 26 25 25 25 26 27 28 29 29 30 30 31 31 31 31 30 31 31 30 31 31 31 31 32 33 31 31 31 27 27 30 31 33 33 34 35 36 35 32 29 30 32 33 34 36 38 36 31 28 27
25 25 25 25 24 25 25 26 27 28 28 29 29 29 30 30 29 29 29 29 29 30 30 31 31 31 31 30 32 32 27 26 26 26 27 28 33 36 33 30 26 23 25 27 28 29 32 36 36 30 26 29
24 24 24 24 24 24 25 25 26 26 27 28 28 28 29 29 29 28 27 27 27 28 28 29 30 30 30 29 31 32 31 29 26 26 27 29 34 33 26 23 22 22 23 24 25 26 27 34 39 36 31 32
23 23 23 23 23 24 24 25 25 26 26 27 28 28 28 29 29 29 28 28 27 26 26 27 28 28 28 27 28 30 29 29 28 27 29 31 33 30 26 24 23 25 25 25 25 25 28 34 39 42 40 36
23 23 23 23 23 23 24 24 25 26 26 27 27 28 28 28 29 29 30 29 28 27 26 26 27 27 26 26 27 28 28 27 26 26 28 30 30 28 28 27 25 27 27 26 26 27 30 33 37 41 42 38
23 23 23 23 23 23 23 24 24 25 26 27 27 28 28 28 28 29 29 30 29 28 27 26 26 26 26 26 26 27 27 26 26 26 27 28 28 27 28 28 28 28 27 27 27 29 31 33 34 36 37 35
24 24 24 24 24 24 23 23 24 24 25 26 27 27 28 28 29 29 29 29 29 29 28 27 26 26 26 26 26 27 27 26 26 26 27 28 28 27 27 27 28 28 29 30 30 30 32 33 33 34 35 35
23 24 24 25 25 25 25 24 24 24 24 25 25 26 27 28 29 29 29 29 29 29 28 28 27 27 26 27 27 27 27 26 26 26 27 28 28 28 27 27 27 28 30 32 32 32 33 34 34 34 37 38
22 23 24 25 25 25 26 26 25 25 25 25 25 25 26 27 28 29 29 29 29 29 29 29 28 28 27 27 27 27 27 27 27 27 27 27 28 28 27 27 29 30 31 32 33 33 33 34 36 37 38 40
21 22 23 24 25 25 26 26 26 26 26 26 26 26 26 27 27 28 29 29 29 29 29 29 29 29 28 28 28 27 28 28 28 28 28 28 28 28 28 28 29 30 32 33 34 34 34 34 36 38 39 40
22 22 22 22 23 24 25 26 26 26 26 26 26 26 27 27 28 28 29 29 30 30 30 31 31 30 30 29 28 29 29 29 30 29 29 29 29 29 29 28 29 31 32 33 34 35 35 35 35 37 39 39
24 24 24 24 23 24 24 24 25 25 26 26 26 26 26 27 27 28 29 29 30 31 31 32 32 32 32 31 31 31 30 31 31 30 30 30 30 30 30 30 30 31 32 33 33 33 35 36 36 35 36 39
24 25 25 26 25 25 25 25 25 25 26 26 26 26 26 26 27 27 28 28 29 30 31 32 33 34 34 34 33 31 30 30 32 33 34 34 33 32 32 32 32 32 33 33 33 33 34 36 37 38 37 39
22 23 24 24 25 25 25 25 25 26 26 26 26 26 26 27 27 27 27 28 28 29 30 31 31 32 34 34 34 32 31 32 34 35 35 35 34 34 33 34 34 34 34 34 33 34 34 35 38 39 40 41
21 21 21 22 22 23 24 24 24 25 26 27 27 28 28 28 28 28 28 28 29 29 29 29 30 30 31 32 33 33 33 34 36 34 33 34 35 34 35 36 36 37 37 34 33 34 35 36 38 39 40 42
19 19 19 19 19 20 21 22 22 23 24 25 26 27 28 29 29 29 29 29 30 30 30 30 30 30 30 31 31 32 34 36 38 39 38 38 36 35 36 36 37 40 39 35 33 35 38 40 42 43 43 44
18 18 17 17 17 17 18 18 19 20 21 21 23 24 25 26 27 29 29 30 31 31 31 31 31 31 31 31 32 32 34 35 38 40 40 39 37 38 39 39 39 39 37 36 35 37 40 42 43 45 47 48
Wind_Direction
272 270 268 267 267 267 268 268 267 266 266 266 267 266 265 260 258 262 268 270 267 264 261 257 257 257 256 256 256 255 257 259 261 261 262 263 265 267 267 268 271 272 274 274 273 272 272 271 271 273 276 278
271 271 271 269 268 268 268 268 267 266 266 266 266 267 266 261 260 262 264 267 267 266 264 260 259 259 257 257 257 258 259 261 262 262 262 262 263 264 265 267 269 273 275 274 272 271 271 271 271 272 273 276
268 269 270 271 270 270 268 267 266 265 265 266 266 268 269 267 267 268 267 267 267 265 265 263 262 261 260 259 260 261 261 262 263 263 263 263 263 264 266 267 270 276 277 272 270 271 271 271 271 272 273 274
268 267 267 269 271 271 271 269 266 265 264 265 266 267 271 274 274 274 273 271 270 267 264 265 263 261 262 261 262 263 263 262 262 262 262 262 263 263 265 267 272 276 273 268 268 269 269 270 271 271 271 272
271 269 267 267 268 271 272 272 269 266 265 265 266 267 269 271 274 275 275 274 274 270 265 266 263 260 260 260 261 263 265 264 265 265 263 263 263 263 264 268 272 272 269 266 266 267 269 270 270 270 269 270
271 273 272 270 268 269 271 273 273 270 267 266 267 269 270 269 270 273 276 277 276 274 271 269 264 260 258 258 260 262 265 267 269 272 269 266 266 266 268 270 271 270 268 266 267 267 269 269 270 270 269 270
272 273 273 274 272 270 271 273 274 273 271 269 269 271 272 272 271 271 273 277 279 278 278 271 263 263 261 259 260 262 266 268 271 277 276 273 273 272 274 273 272 271 270 270 269 269 270 270 270 270 269 270
273 273 272 273 275 274 273 273 274 275 274 273 272 273 274 274 273 272 271 274 278 279 281 275 266 269 271 266 262 262 265 267 269 274 276 277 277 276 277 277 275 273 273 273 272 272 272 272 271 269 268 269
277 277 275 272 273 275 275 274 274 274 275 275 275 275 276 277 275 274 273 273 276 278 281 277 268 270 274 271 267 265 267 268 268 270 273 276 277 276 277 277 274 273 273 274 274 273 273 272 271 270 269 269
277 278 277 273 271 272 274 275 275 275 276 277 278 278 278 278 278 277 275 274 274 275 277 277 272 270 272 273 271 270 273 273 271 270 271 272 273 274 274 274 274 273 273 273 274 273 272 270 270 272 273 273
277 277 276 276 273 272 272 274 275 275 276 278 279 280 280 280 281 280 278 277 275 273 274 276 277 275 273 273 273 274 277 277 275 274 274 271 270 268 268 271 274 274 273 273 275 273 269 269 271 272 274 276
281 280 277 276 275 274 273 273 274 275 276 277 279 280 280 281 281 281 281 280 278 275 273 273 277 277 276 275 274 275 277 276 270 270 271 269 270 270 271 273 270 269 272 276 277 275 270 270 273 271 273 277
285 283 281 278 276 275 274 274 273 274 275 276 277 279 279 280 280 281 281 281 281 279 277 274 274 275 277 278 279 276 273 271 268 269 270 273 280 284 288 288 275 270 275 277 278 277 273 273 276 273 272 275
287 285 283 281 278 276 274 273 273 273 275 275 275 277 278 278 279 280 280 280 280 279 279 277 275 275 275 279 283 275 267 271 279 285 287 286 286 286 293 299 289 280 279 279 282 282 278 279 282 277 273 275
288 287 285 283 281 278 275 273 273 273 274 275 275 275 276 277 277 278 278 278 278 277 277 276 275 274 272 274 275 267 267 282 291 296 297 293 291 294 299 301 296 288 282 281 284 282 276 278 278 269 270 279
292 290 288 287 284 281 278 276 275 274 275 275 276 276 276 277 277 277 277 276 276 275 275 274 273 272 271 271 267 266 280 293 293 297 296 290 293 299 300 297 294 291 287 284 286 285 278 272 263 254 267 282
296 295 293 291 288 285 282 280 278 276 276 276 276 277 276 277 278 279 279 278 277 275 274 274 274 273 273 271 268 271 281 286 286 289 284 280 286 290 291 291 294 295 289 284 285 287 276 264 259 257 269 287
298 298 297 295 293 290 287 284 281 279 278 277 277 277 277 278 279 280 282 282 281 278 276 276 276 277 277 276 274 275 279 281 282 280 275 275 279 282 284 289 293 291 283 275 276 281 274 265 263 262 266 283
299 299 299 298 297 295 292 288 285 282 280 279 278 278 278 278 279 280 282 284 284 283 280 279 278 279 280 280 279 280 282 283 282 277 272 271 273 277 284 286 285 284 280 273 271 276 276 272 269 265 265 277
297 298 299 299 298 296 295 292 289 286 284 282 280 280 279 278 278 279 280 282 284 285 284 282 280 280 280 280 280 282 284 284 282 279 273 267 268 274 279 281 279 281 282 277 274 275 276 276 274 270 269 275
295 296 296 297 297 296 296 294 293 291 289 287 285 283 282 280 279 278 279 280 281 283 284 284 283 282 281 280 281 281 283 284 282 280 277 274 275 277 277 278 278 281 281 278 278 278 276 278 277 275 275 277
296 295 295 295 295 295 295 294 294 293 292 291 289 287 285 284 282 281 280 279 279 280 281 283 283 283 283 282 282 282 283 285 285 283 282 281 281 281 279 278 276 276 276 275 276 276 275 277 277 273 273 276
298 297 297 296 295 294 294 294 293 293 292 291 290 289 288 287 286 285 283 282 281 280 280 280 281 282 283 283 283 283 284 285 287 287 287 287 286 284 281 276 273 273 275 275 275 274 274 276 273 266 265 271
304 302 300 299 298 297 296 295 294 293 292 291 290 288 288 287 287 286 286 285 284 282 281 279 278 278 278 280 281 281 282 283 284 286 287 287 286 286 283 279 276 275 276 276 276 276 275 275 273 266 264 268
308 306 304 302 300 300 298 297 296 295 294 293 291 290 288 286 285 285 285 285 285 284 283 281 279 277 275 276 277 277 278 280 282 283 283 284 285 286 286 283 279 277 277 276 276 276 275 274 272 266 266 269
307 305 303 301 299 298 297 296 295 295 294 293 293 292 290 289 287 285 284 284 283 283 283 283 282 279 277 275 275 275 276 278 279 281 281 282 283 285 285 284 282 280 279 278 277 277 277 275 271 265 266 272
305 303 302 300 299 298 296 295 294 294 293 293 292 292 291 291 290 288 287 285 284 283 283 282 282 282 281 279 277 276 277 279 279 279 279 279 280 282 284 284 283 280 279 277 275 276 277 277 273 265 263 270
307 304 302 301 300 299 298 296 294 293 293 292 292 292 292 291 291 290 289 288 287 286 285 284 283 283 283 283 281 279 280 281 277 275 275 275 278 280 282 284 282 280 279 277 274 274 275 277 276 270 264 266
314 311 309 307 305 303 302 301 300 298 296 296 295 295 295 294 294 293 292 291 290 289 288 287 286 285 284 284 282 279 277 276 275 275 275 275 278 280 280 281 279 278 278 274 273 276 277 277 278 277 272 269
320 319 317 315 313 310 309 307 305 303 300 299 297 297 296 296 296 296 295 294 293 292 291 290 289 287 286 284 282 278 274 273 274 277 278 276 276 276 278 278 276 277 275 270 271 276 279 279 279 279 278 276
326 325 324 322 320 317 314 312 310 309 307 305 303 302 301 300 299 298 298 297 296 295 294 293 292 290 289 287 285 282 279 277 276 277 278 277 274 271 273 274 274 278 279 276 277 278 278 279 279 278 277 275